When you browse on this site, cookies collect data to enhance your experience and personalize the content and advertising you see.
Visit our Privacy Policy to learn more. By continuing to use the site, you agree to this use of cookies and data.
  • In Czech Republic
  • List of Countries
  • For 7 days
  • Water Temperature
  • Weather Map
  • Weather Widgets
  • user-avatar
    Login

    Hourly Weather Olympia

    Today, 29 February, Saturday

    Time Temperature Precipitation Wind Pressure Humidity
    00:00 +7°C° 0 mm 9 mps 760 mmHg 70%
    01:00 +7°C° 0 mm 8 mps 760 mmHg 71%
    02:00 +6°C° 0 mm 8 mps 760 mmHg 72%
    03:00 +6°C° 0 mm 7 mps 760 mmHg 73%
    04:00 +5°C° 0 mm 7 mps 760 mmHg 75%
    05:00 +5°C° 0 mm 6 mps 761 mmHg 75%
    06:00 +6°C° 0 mm 5 mps 761 mmHg 75%
    07:00 +6°C° 0 mm 4 mps 762 mmHg 76%
    08:00 +8°C° 0 mm 4 mps 762 mmHg 67%
    09:00 +11°C° 0 mm 4 mps 762 mmHg 58%
    10:00 +13°C° 0 mm 3 mps 763 mmHg 49%
    11:00 +13°C° 0 mm 3 mps 763 mmHg 46%
    12:00 +14°C° 0 mm 3 mps 763 mmHg 44%
    13:00 +16°C° 0 mm 3 mps 763 mmHg 42%
    14:00 +14°C° 0 mm 3 mps 763 mmHg 44%
    15:00 +15°C° 0 mm 2 mps 763 mmHg 47%
    16:00 +14°C° 0 mm 2 mps 763 mmHg 49%
    17:00 +12°C° 0 mm 2 mps 763 mmHg 54%
    18:00 +11°C° 0 mm 1 mps 764 mmHg 59%
    19:00 +9°C° 0 mm 1 mps 764 mmHg 65%
    20:00 +9°C° 0 mm 1 mps 764 mmHg 65%
    21:00 +8°C° 0 mm 2 mps 765 mmHg 66%
    22:00 +8°C° 0 mm 2 mps 765 mmHg 67%
    23:00 +8°C° 0 mm 2 mps 765 mmHg 68%

    Tomorrow, 1 March, Sunday

    Time Temperature Precipitation Wind Pressure Humidity
    00:00 +7°C° 0 mm 2 mps 765 mmHg 69%
    01:00 +7°C° 0 mm 2 mps 765 mmHg 70%
    02:00 +7°C° 0 mm 2 mps 764 mmHg 70%
    03:00 +7°C° 0 mm 2 mps 764 mmHg 71%
    04:00 +7°C° 0 mm 2 mps 764 mmHg 72%
    05:00 +7°C° 0 mm 2 mps 764 mmHg 73%
    06:00 +8°C° 0 mm 2 mps 764 mmHg 73%
    07:00 +8°C° 0 mm 2 mps 764 mmHg 74%
    08:00 +10°C° 0 mm 2 mps 764 mmHg 67%
    09:00 +13°C° 0 mm 2 mps 764 mmHg 60%
    10:00 +15°C° 0 mm 2 mps 764 mmHg 53%
    11:00 +16°C° 0 mm 2 mps 764 mmHg 53%
    12:00 +16°C° 0 mm 3 mps 763 mmHg 54%
    13:00 +17°C° 0 mm 3 mps 763 mmHg 55%
    14:00 +16°C° 0 mm 3 mps 763 mmHg 58%
    15:00 +16°C° 0 mm 3 mps 762 mmHg 61%
    16:00 +14°C° 0 mm 3 mps 762 mmHg 64%
    17:00 +13°C° 0 mm 3 mps 762 mmHg 69%
    18:00 +11°C° 0 mm 3 mps 762 mmHg 74%
    19:00 +10°C° 0 mm 3 mps 763 mmHg 79%
    20:00 +10°C° 0 mm 3 mps 763 mmHg 78%
    21:00 +10°C° 0 mm 3 mps 763 mmHg 78%
    22:00 +10°C° 0 mm 4 mps 763 mmHg 77%
    23:00 +10°C° 0 mm 4 mps 762 mmHg 78%

    Day after tomorrow, 2 March, Monday

    Time Temperature Precipitation Wind Pressure Humidity
    00:00 +10°C° 0 mm 4 mps 762 mmHg 79%
    01:00 +10°C° 0 mm 4 mps 762 mmHg 79%
    02:00 +11°C° 0 mm 4 mps 762 mmHg 80%
    03:00 +11°C° 0 mm 4 mps 761 mmHg 82%
    04:00 +12°C° 0 mm 4 mps 761 mmHg 83%
    05:00 +12°C° 0 mm 4 mps 761 mmHg 83%
    06:00 +12°C° 0 mm 4 mps 761 mmHg 83%
    07:00 +13°C° 0 mm 5 mps 761 mmHg 84%
    08:00 +14°C° 0 mm 5 mps 761 mmHg 80%
    09:00 +15°C° 0 mm 5 mps 761 mmHg 77%
    10:00 +16°C° 0 mm 6 mps 761 mmHg 74%
    11:00 +17°C° 0 mm 6 mps 761 mmHg 73%
    12:00 +17°C° 0 mm 6 mps 761 mmHg 72%
    13:00 +18°C° 0 mm 7 mps 760 mmHg 72%
    14:00 +18°C° 0 mm 7 mps 760 mmHg 73%
    15:00 +17°C° 0 mm 7 mps 759 mmHg 74%
    16:00 +17°C° 0 mm 7 mps 759 mmHg 75%
    17:00 +15°C° 0 mm 6 mps 759 mmHg 78%
    18:00 +14°C° 0 mm 6 mps 759 mmHg 82%
    19:00 +13°C° 0 mm 6 mps 759 mmHg 85%
    20:00 +13°C° 0 mm 6 mps 759 mmHg 81%
    21:00 +13°C° 0 mm 6 mps 759 mmHg 78%
    22:00 +13°C° 0 mm 6 mps 759 mmHg 74%
    23:00 +12°C° 0 mm 7 mps 759 mmHg 69%

    3 March, Tuesday

    Time Temperature Precipitation Wind Pressure Humidity
    00:00 +12°C° 0 mm 7 mps 759 mmHg 65%
    01:00 +12°C° 0 mm 7 mps 758 mmHg 61%
    02:00 +13°C° 0 mm 8 mps 758 mmHg 60%
    03:00 +13°C° 0 mm 8 mps 757 mmHg 59%
    04:00 +13°C° 0 mm 8 mps 757 mmHg 58%
    05:00 +13°C° 0 mm 8 mps 757 mmHg 58%
    06:00 +13°C° 0 mm 8 mps 757 mmHg 59%
    07:00 +15°C° 0 mm 8 mps 757 mmHg 59%
    08:00 +16°C° 0 mm 9 mps 756 mmHg 57%
    09:00 +18°C° 0 mm 10 mps 756 mmHg 55%
    10:00 +19°C° 0 mm 10 mps 756 mmHg 53%
    11:00 +19°C° 0 mm 11 mps 755 mmHg 54%
    12:00 +19°C° 0 mm 12 mps 755 mmHg 55%
    13:00 +19°C° 0 mm 12 mps 754 mmHg 56%
    14:00 +18°C° 0 mm 12 mps 753 mmHg 59%
    15:00 +18°C° 0 mm 13 mps 753 mmHg 61%
    16:00 +17°C° 0 mm 13 mps 752 mmHg 64%
    17:00 +15°C° 0.1 mm 13 mps 752 mmHg 68%
    18:00 +15°C° 0.1 mm 12 mps 752 mmHg 72%
    19:00 +14°C° 0.1 mm 12 mps 752 mmHg 76%
    20:00 +14°C° 1.1 mm 11 mps 752 mmHg 80%
    21:00 +13°C° 1.1 mm 10 mps 752 mmHg 84%
    22:00 +13°C° 1.1 mm 9 mps 752 mmHg 88%
    23:00 +12°C° 0.4 mm 9 mps 752 mmHg 88%

    4 March, Wednesday

    Time Temperature Precipitation Wind Pressure Humidity
    00:00 +11°C° 0.4 mm 9 mps 752 mmHg 87%
    01:00 +11°C° 0.4 mm 9 mps 752 mmHg 86%
    02:00 +10°C° 0.5 mm 9 mps 753 mmHg 87%
    03:00 +10°C° 0.5 mm 9 mps 753 mmHg 87%
    04:00 +10°C° 0.5 mm 8 mps 753 mmHg 87%
    05:00 +10°C° 0.5 mm 8 mps 753 mmHg 87%
    06:00 +10°C° 0.5 mm 7 mps 754 mmHg 86%
    07:00 +9°C° 0.5 mm 6 mps 754 mmHg 86%
    08:00 +10°C° 0.4 mm 6 mps 754 mmHg 81%
    09:00 +11°C° 0.4 mm 6 mps 755 mmHg 77%
    10:00 +11°C° 0.4 mm 6 mps 755 mmHg 72%
    11:00 +13°C° 0.4 mm 6 mps 755 mmHg 72%
    12:00 +12°C° 0.4 mm 7 mps 755 mmHg 71%
    13:00 +12°C° 0.4 mm 7 mps 755 mmHg 71%
    14:00 +12°C° 0.2 mm 7 mps 754 mmHg 72%
    15:00 +11°C° 0.2 mm 6 mps 754 mmHg 74%
    16:00 +12°C° 0.2 mm 5 mps 754 mmHg 75%
    17:00 +10°C° 0.6 mm 5 mps 754 mmHg 79%
    18:00 +10°C° 0.6 mm 5 mps 755 mmHg 83%
    19:00 +10°C° 0.6 mm 4 mps 755 mmHg 88%
    20:00 +8°C° 0.5 mm 4 mps 755 mmHg 88%
    21:00 +9°C° 0.5 mm 3 mps 755 mmHg 89%
    22:00 +9°C° 0.5 mm 3 mps 756 mmHg 90%
    23:00 +8°C° 0.3 mm 3 mps 756 mmHg 89%

    5 March, Thursday

    Time Temperature Precipitation Wind Pressure Humidity
    00:00 +8°C° 0.3 mm 2 mps 755 mmHg 89%
    01:00 +8°C° 0.3 mm 2 mps 755 mmHg 89%
    02:00 +8°C° 0.2 mm 2 mps 755 mmHg 89%
    03:00 +7°C° 0.2 mm 2 mps 755 mmHg 89%
    04:00 +7°C° 0.2 mm 2 mps 755 mmHg 89%
    05:00 +8°C° 0 mm 2 mps 755 mmHg 88%
    06:00 +9°C° 0 mm 1 mps 755 mmHg 87%
    07:00 +10°C° 0 mm 1 mps 756 mmHg 86%
    08:00 +11°C° 0 mm 1 mps 756 mmHg 79%
    09:00 +13°C° 0 mm 1 mps 756 mmHg 73%
    10:00 +15°C° 0 mm 2 mps 756 mmHg 66%
    11:00 +15°C° 0.1 mm 2 mps 756 mmHg 66%
    12:00 +14°C° 0.1 mm 3 mps 756 mmHg 66%
    13:00 +14°C° 0.1 mm 4 mps 756 mmHg 66%
    14:00 +14°C° 0.1 mm 5 mps 756 mmHg 69%
    15:00 +13°C° 0.1 mm 5 mps 756 mmHg 72%
    16:00 +13°C° 0.1 mm 6 mps 756 mmHg 75%
    17:00 +12°C° 0 mm 5 mps 757 mmHg 79%
    18:00 +10°C° 0 mm 5 mps 757 mmHg 84%
    19:00 +8°C° 0 mm 4 mps 758 mmHg 88%
    20:00 +8°C° 0 mm 4 mps 758 mmHg 88%
    21:00 +9°C° 0 mm 3 mps 759 mmHg 88%
    22:00 +9°C° 0 mm 3 mps 759 mmHg 88%
    23:00 +9°C° 0 mm 2 mps 759 mmHg 88%
    Show more